Back to catalog

HGS 1

ASIASAT 3

AliveCommunicationsGEO
NORAD 25126·PAYLOAD·🇺🇸 United States

Launched Dec 24, 1997 from Baikonur Cosmodrome

Loading…

TLE

FreshSource: Space-Track

Epoch: Sep 14, 2026, 05:04 UTC

1 25126U 97086A   26257.21137735 -.00000269  00000-0  00000-0 0  9995
2 25126  13.3065  30.9776 0048711  52.6033 309.0861  1.00251601106031

Track HGS 1 in real time with AllMySat

Download on the App Store